Regional Weather Roundup
Issued by NWS

Home | Current Version | Previous Version | Graphics & Text | Print | Product List | Glossary On
Versions: 1 2 3 4 5 6 7 8 9 10 11 12 13 14 15 16 17 18 19 20 21 22 23 24 25 26 27 28 29 30 31 32 33 34 35 36 37 38 39 40 41 42 43 44 45 46 47 48 49 50
000
ASUS43 KMPX 240110
RWRMN
WEATHER ROUNDUP FOR MINNESOTA
NATIONAL WEATHER SERVICE TWIN CITIES/CHANHASSEN MN
700 PM CST THU FEB 23 2017


NOTE: "FAIR" INDICATES FEW OR NO CLOUDS BELOW 12,000 FEET WITH NO
SIGNIFICANT WEATHER AND/OR OBSTRUCTIONS TO VISIBILITY. N/A MEANS
CURRENT SKY AND/OR WEATHER CONDITIONS ARE NOT AVAILABLE.

MNZ060>063-068>070-240200-
   Twin Cities Metro

CITY           SKY/WX    TMP DP  RH WIND       PRES   REMARKS
TWIN CITIES    CLOUDY    31  22  69 N16       29.93R WCI  20
ST PAUL        CLOUDY    32  23  69 N12       29.95R WCI  23
CRYSTAL        CLOUDY    30  20  66 N12       29.92S WCI  20
BLAINE         CLOUDY    32  25  74 NE12G21   29.94R WCI  23
LAKEVILLE      CLOUDY    30  25  80 N10       29.90F WCI  21
EDEN PRAIRIE   CLOUDY    31  22  69 N10       29.90F WCI  22
SOUTH ST PAUL  CLOUDY    32  23  69 N12G17    29.92F WCI  23
LAKE ELMO      CLOUDY    32  27  80 N9G16     29.93S WCI  24
$$
MNZ001>005-007-008-013>017-022>024-027-028-240200-
   Northwest Minnesota

CITY           SKY/WX    TMP DP  RH WIND       PRES   REMARKS
BEMIDJI        CLOUDY    22  14  72 NW10      30.03R WCI  11
HALLOCK        CLEAR     21  16  79 N8        30.14S WCI  12
ROSEAU         CLEAR     16   9  73 NW9       30.11R WCI   4
WARROAD        PTCLDY    18   9  68 NW9       30.11R WCI   6
THIEF RVR FALL PTCLDY    20  12  71 N9        30.11R WCI   9
CROOKSTON      PTCLDY    23  16  74 N8        30.13S WCI  14
FOSSTON        CLOUDY    19  14  79 N15       30.08R WCI   5
DETROIT LAKES  CLOUDY    27  21  80 N8G17     30.04S WCI  18
MOORHEAD       CLOUDY    25  18  74 N22       30.09R WCI  10
PARK RAPIDS    CLOUDY    24  14  65 N12       30.01R WCI  13
MAHNOMEN       CLOUDY    24  18  79 N18       30.05S WCI  10
$$
MNZ006-009>011-018-025>026-240200-
   North Central Minnesota

CITY           SKY/WX    TMP DP  RH WIND       PRES   REMARKS
BAUDETTE       PTCLDY    18   7  62 NW14      30.06R WCI   4
FLAG ISLAND    CLEAR     18   7  62 NW15      30.08R WCI   3
INTL FALLS     CLOUDY    20   8  60 NW8       30.03R WCI  10
WASKISH        MOCLDY    21  12  68 N8        30.06R WCI  12
BIG FORK       PTCLDY    23  10  58 NW6       30.02R WCI  16
LONGVILLE      CLOUDY    23  18  80 NW3       30.02R
GRAND RAPIDS   CLOUDY    23  16  74 N14       30.01R WCI  11
CRANE LAKE     CLEAR     21  10  63 NW3       30.03R
ORR            CLEAR     21   9  58 CALM      29.98R
COOK           CLOUDY    21  12  68 NW3       30.00R
WALKER         FAIR      23  15  71 N6        30.02R WCI  16
$$
MNZ012-019>021-037-240200-
   Northeast Minnesota

CITY           SKY/WX    TMP DP  RH WIND       PRES   REMARKS
DULUTH         MOCLDY    25  21  85 NW9       29.95R WCI  15
ELY            CLOUDY    21  10  63 NW6       29.98R WCI  14
HIBBING        CLOUDY    22  14  71 N10       29.98R WCI  11
EVELETH        PTCLDY    24   8  51 N6        29.99R WCI  17
DULUTH HARBOR  MOCLDY    30  25  80 CALM      30.01R
TWO HARBORS    MOCLDY    30  21  69 CALM      29.93F
SILVER BAY     CLOUDY    27  18  69 N7        29.94R WCI  19
GRAND MARAIS     N/A     30  15  53 CALM      29.97R
G MARAIS ARPRT PTCLDY    21   9  58 NW8       29.90S WCI  12
$$
MNZ029>031-032-039>041-046>048-054>057-064-240200-
   West Central Minnesota

CITY           SKY/WX    TMP DP  RH WIND       PRES   REMARKS
FERGUS FALLS   CLOUDY    25  19  80 N13G22    30.06F WCI  13
WHEATON        CLOUDY    27  21  80 N16       30.03F WCI  14
MORRIS         CLOUDY    30  25  80 N17       29.96F WCI  18
ALEXANDRIA     MOCLDY    28  22  78 N15       29.98R WCI  16
ELBOW LAKE     FAIR      27  21  80 N15G21    30.00S WCI  15
WADENA         CLOUDY    25  19  80 N13       29.99S WCI  13
GLENWOOD       CLOUDY    28  23  80 N15       29.96S WCI  17
APPLETON       CLOUDY    30  25  80 N17G26    29.93F WCI  18
BENSON         CLOUDY    32  21  64 NE15G24   29.95F WCI  22
ORTONVILLE     CLOUDY    28  21  74 N24       29.95F WCI  14
MADISON        CLOUDY    32  27  80 N17G23    29.95S WCI  21
WILLMAR        FAIR      30  27  86 NE17      29.92F WCI  18
$$
MNZ033>034-036-042>043-049>051-058-059-240200-
   Central Minnesota

CITY           SKY/WX    TMP DP  RH WIND       PRES   REMARKS
ST CLOUD       CLOUDY    29  22  75 N13       29.96R WCI  19
SAUK CENTRE    CLOUDY    28  21  73 N13       29.97S WCI  18
PAYNESVILLE    CLOUDY    29  24  79 NE12G20   29.94S WCI  20
AITKIN         MOCLDY    27  19  74 N5        29.99R WCI  21
PINE RIVER     CLOUDY    25  18  74 N8        30.04R WCI  16
BRAINERD       CLOUDY    26  19  74 N8        30.00R WCI  18
STAPLES        PTCLDY    25  19  80 N9        30.00R WCI  15
LONG PRAIRIE   FAIR      28  21  74 NW12      29.98R WCI  18
LITTLE FALLS   MOCLDY    28  21  74 N5        29.99R WCI  23
LITCHFIELD     CLOUDY    30  25  80 N14       29.92F WCI  20
BUFFALO        CLOUDY    30  23  77 N13       29.94F WCI  20
MAPLE LAKE     CLOUDY    30  26  82 N10G17    29.95S WCI  21
HUTCHINSON     CLOUDY    31  25  80 N12G22    29.91F WCI  21
$$
MNZ037-044-045-052-053-240200-
   East Central Minnesota

CITY           SKY/WX    TMP DP  RH WIND       PRES   REMARKS
PRINCETON      MOCLDY    30  25  80 N10       29.97R WCI  21
MORA           CLOUDY    27  21  80 N8        29.99S WCI  18
CAMBRIDGE      MOCLDY    30  21  69 N7        29.95R WCI  23
RUSH CITY      CLOUDY    28  23  80 N12       29.96S WCI  18
MOOSE LAKE     CLOUDY    28  23  80 N5        29.98R WCI  23
HINCKLEY       CLOUDY    30  25  80 N8        29.99R WCI  23
CLOQUET        CLOUDY    25  21  86 NW6       29.97R WCI  18
MCGREGOR       CLOUDY    27  23  86 CALM      30.00R
$$
MNZ071>073-080-081-089-090-097-098-240200-
   Southwest Minnesota

CITY           SKY/WX    TMP DP  RH WIND       PRES   REMARKS
MONTEVIDEO     CLOUDY    30  27  86 NE17      29.95F WCI  18
GRANITE FALLS  CLOUDY    32  27  83 N14       29.93F WCI  22
CANBY          CLOUDY    31  26  82 N15G25    29.92F WCI  20
MARSHALL       CLOUDY    30  25  81 NE16      29.88F WCI  19
REDWOOD FALLS  CLOUDY    31  23  72 NE13G18   29.89F WCI  21
OLIVIA         PTCLDY    32  27  80 NE14G20   29.90F WCI  22
PIPESTONE      CLOUDY    28  23  80 NE25G33   29.80R WCI  14
WINDOM         CLOUDY    28  27  93 N22G29    29.79F WCI  15
WORTHINGTON    CLOUDY    28  25  88 NE25G31   29.79R WCI  13
JACKSON          N/A     30  27  86 NE25G31   29.78F WCI  16
TRACY          CLOUDY    30  26  86 N22G28    29.85F WCI  17
SLAYTON        CLOUDY    27  25  90 N20G25    29.82R WCI  14
$$
MNZ065>067-074>077-082>085-091>093-240200-
   South Central Minnesota

CITY           SKY/WX    TMP DP  RH WIND       PRES   REMARKS
MANKATO        MIX PCPN  31  25  78 NE17      29.86F WCI  19
NEW ULM        CLOUDY    28  23  80 NE18G24   29.85F WCI  16
ST JAMES       MOCLDY    30  28  93 N20G25    29.84F WCI  18
FAIRMONT       LGT SNOW  30  28  93 NE20G25   29.79S FOG     WCI  18
GLENCOE        CLOUDY    31  27  84 N12       29.90F WCI  22
FARIBAULT      LGT SNOW  32  27  80 N10G17    29.88F WCI  24
OWATONNA       LGT SNOW  30  28  93 N17G23    29.85S WCI  18
WASECA         LGT SNOW  32  30  93 NE18      29.85F WCI  20
ALBERT LEA     LGT SNOW  34  30  86 N18G25    29.79F VSB 1   WCI  23
$$
MNZ078>079-086>088-094>096-240200-
   Southeast Minnesota

CITY           SKY/WX    TMP DP  RH WIND       PRES   REMARKS
ROCHESTER      LGT SNOW  33  30  88 NE20G30   29.83R FOG     WCI  21
RED WING       FLURRIES  37  25  60 NE7       29.91R
STANTON        CLOUDY    33  27  77 NE13      29.88F WCI  24
DODGE CENTER   CLOUDY    34  28  80 NE18      29.82F WCI  23
WINONA         CLOUDY    39  28  65 N6        29.88R
AUSTIN         LGT SNOW  34  30  86 NE17G25   29.78F WCI  23
PRESTON        FLURRIES  35  30  83 N12G21    29.81F WCI  26
$$
ABBREVIATIONS USED IN REMARKS
   TC - TEMPERATURES IN CELSIUS
  WCI - WIND CHILL INDEX
   HX - HEAT INDEX
  VSB - VISIBILITY
$$




USA.gov is the U.S. government's official web portal to all federal, state and local government web resources and services.